Weather History for KNEL - March, 2013

Change the Weather History Date:

Monday, March 11, 2013

  Actual Average Record
Temperature  
Mean Temperature 51 °F -  
Max Temperature 61 °F 45 °F 61 °F (2013)
Min Temperature 33 °F 33 °F 21 °F (2012)
Degree Days  
Heating Degree Days 14    
Growing Degree Days 1 (Base 50)    
Moisture  
Dew Point 39 °F    
Average Humidity 66    
Maximum Humidity 89    
Minimum Humidity 38    
Precipitation  
Precipitation 0.00 in - - ()
Sea Level Pressure  
Sea Level Pressure 30.20 in    
Wind  
Wind Speed 3 mph (SSE)    
Max Wind Speed 15 mph    
Max Gust Speed -    
Averages and records for this station are not official NWS values.
T = Trace of Precipitation, MM = Missing Value Source: NWS Daily Summary

Daily Weather History Graph

Daily Weather History Graph

Search for Another Location

Airport or City:

Trip Planner

Search our weather history database for the weather conditions in past years. The results will help you decide how hot, cold, wet, or windy it might be!

Date:

Astronomy

Mar. 11, 2013 Rise Set
Actual Time 7:14 AM EDT 7:00 PM EDT
Civil Twilight 6:47 AM EDT 7:27 PM EDT
Nautical Twilight 6:16 AM EDT 7:58 PM EDT
Astronomical Twilight 5:44 AM EDT 8:30 PM EDT
Moon 6:47 AM EDT (3/11) 7:09 PM EDT (3/11)
Length of Visible Light 12h 39m
Length of Day
11h 45m
Waning Crescent, 0% of the Moon is Illuminated
Mar 11
Waning Crescent
Mar 11
New
Mar 19
First Quarter
Mar 27
Full
Apr 3
Last Quarter

Hourly Weather History & Observations

Time (EDT) Temp. Dew Point Humidity Pressure Visibility Wind Dir Wind Speed Gust Speed Precip Events Conditions
12:00 AM 36.0 °F 30.9 °F 82% 30.32 in - Calm Calm - N/A   Clear
1:00 AM 36.0 °F 30.0 °F 79% 30.30 in - Calm Calm - N/A   Clear
2:00 AM 35.1 °F 30.9 °F 85% 30.27 in - Calm Calm - N/A   Clear
2:34 AM 33.8 °F 30.2 °F 87% 30.29 in - Calm Calm - N/A   Mostly Cloudy
3:00 AM 33.1 °F 28.0 °F 82% 30.27 in - Calm Calm - N/A   Overcast
4:00 AM 34.0 °F 30.0 °F 85% 30.26 in - Calm Calm - N/A   Overcast
4:31 AM 35.6 °F 30.2 °F 81% 30.25 in - Calm Calm - N/A   Overcast
4:40 AM 41.0 °F 30.2 °F 65% 30.25 in - Calm Calm - N/A   Overcast
5:00 AM 34.0 °F 30.0 °F 85% 30.25 in - Calm Calm - N/A   Overcast
6:00 AM 34.0 °F 30.9 °F 89% 30.24 in - Calm Calm - N/A   Overcast
7:00 AM 35.1 °F 30.9 °F 85% 30.23 in - Calm Calm - N/A   Overcast
8:00 AM 37.9 °F 30.9 °F 76% 30.24 in - Calm Calm - N/A   Overcast
9:00 AM 43.0 °F 37.9 °F 82% 30.25 in - Calm Calm - N/A   Overcast
9:26 AM 48.2 °F 39.2 °F 71% 30.25 in - Calm Calm - N/A   Overcast
10:00 AM 50.0 °F 41.0 °F 71% 30.25 in - Calm Calm - N/A   Overcast
11:00 AM 62.1 °F 43.0 °F 50% 30.23 in - SSE 4.6 mph - N/A   Overcast
11:33 AM 64.4 °F 44.6 °F 49% 30.22 in - SSW 5.8 mph - N/A   Mostly Cloudy
12:00 PM 68.0 °F 42.8 °F 40% 30.21 in - South 9.2 mph - N/A   Partly Cloudy
12:06 PM 68.0 °F 42.1 °F 39% 30.21 in - Variable 5.8 mph - N/A   Clear
1:00 PM 69.1 °F 42.1 °F 38% 30.19 in - SE 9.2 mph - N/A   Clear
2:00 PM 68.0 °F 42.1 °F 39% 30.17 in - South 11.5 mph - N/A   Clear
3:22 PM - - N/A% - - North - - N/A   Unknown
4:00 PM 64.9 °F 43.0 °F 45% 30.14 in - SSE 11.5 mph - N/A   Clear
5:00 PM 63.0 °F 45.0 °F 52% 30.12 in - SSE 15.0 mph - N/A   Clear
6:00 PM 62.1 °F 45.0 °F 53% 30.11 in - SE 9.2 mph - N/A   Clear
7:06 PM 59.0 °F 46.0 °F 62% 30.12 in - SSE 10.4 mph - N/A   Mostly Cloudy
7:11 PM - - N/A% - - North - - N/A   Unknown
7:55 PM 59.0 °F 46.4 °F 63% 30.12 in - SSE 8.1 mph - N/A   Overcast
8:00 PM 59.0 °F 46.9 °F 64% 30.12 in - SSE 9.2 mph - N/A   Overcast
8:51 PM 59.0 °F 46.4 °F 63% 30.11 in - SSE 5.8 mph - N/A   Overcast
9:00 PM 60.1 °F 46.9 °F 62% 30.11 in - SSE 8.1 mph - N/A   Overcast
10:00 PM 59.0 °F 46.9 °F 64% 30.09 in - SSE 9.2 mph - N/A   Partly Cloudy
11:00 PM 59.0 °F 46.9 °F 64% 30.08 in - SSE 5.8 mph - N/A   Clear
11:12 PM - - N/A% - - North - - N/A   Unknown